Location: Maignaut
(43.8886°N, 0.4051°E)
Time: 19:41:55
(UTC+00:00)

EXPRESS MD2 - Pass Details

Date: 17 January 2021
Orbit: 260 x 3983 km, 49.9° (Epoch: 28 February)

Event Time Altitude Azimuth Distance (km) Brightness Sun altitude
Rises 18:04:06 0° 290° (WNW) 5,398 9.3 -13.3°
Reaches altitude 10° 18:08:42 10° 293° (WNW) 3,734 8.3 -14.1°
Maximum altitude 18:17:00 60° 13° (NNE) 948 4.3 -15.6°
Enters shadow 18:19:21 28° 84° (E) 1,253 4.5 -16.0°
